Location: Meriden
(44.0740°N, 93.3870°W)
Time: 05:03:19
(UTC-05:00)

Amateur Radio Satellites - All Passes

Search period start: 31 May 2016 04:33
Search period end: 01 June 2016 04:33
Location: Meriden, 44.0740°N, 93.3870°W

Satellite Date Start Highest point End Downlink Frequencies (MHz)
Time Altitude Azimuth
Oscar 19 31 May 04:34:05 04:36:40 14° 303° (WNW) 04:39:14 437.125/150
STARS 31 May 04:41:42 04:46:06 74° 257° (WSW) 04:50:31 437.465
YUBILEINY 31 May 04:45:30 04:53:36 44° 273° (W) 05:01:43 435.215
JAS-2 31 May 04:49:35 04:51:42 11° 315° (NW) 04:53:47 435.910
CUBESAT XI-V 31 May 04:59:15 05:03:17 29° 67° (ENE) 05:07:21 437.345
MOZHAYETS 4 31 May 05:00:22 05:04:32 35° 263° (W) 05:08:46
Cosmos 2504 31 May 05:14:46 05:23:18 85° 264° (W) 05:32:12 435.465 / 435.565
ITAMSAT 1 31 May 05:22:43 05:27:04 27° 296° (WNW) 05:31:24 435.822/435.867
Gurwin Techsat 1B 31 May 05:28:36 05:30:20 12° 305° (NW) 05:32:05 435.225
HORYU 2 31 May 05:32:46 05:36:48 33° 97° (E) 05:40:49 437.375
Cosmos 2491 31 May 05:43:42 05:51:54 42° 289° (WNW) 06:00:09 435.465 / 435.565
AO-85 31 May 05:47:11 05:52:36 67° 121° (ESE) 05:57:54 145.980
STRAND 1 31 May 06:15:34 06:18:56 18° 60° (ENE) 06:22:19 437.568
AO-7 31 May 06:15:50 06:23:49 52° 298° (WNW) 06:31:48 29.400- 29.500
NOAA 15 31 May 06:22:18 06:26:24 22° 93° (E) 06:30:28 137.62
CUBESAT XI-V 31 May 06:36:24 06:40:35 32° 264° (W) 06:44:48 437.345
Cubesat XI-IV 31 May 06:41:13 06:45:28 23° 93° (E) 06:49:42 437.490
GONETS M04 31 May 06:46:59 06:48:38 11° 49° (NE) 06:50:16
HORYU 2 31 May 07:09:34 07:13:14 26° 294° (WNW) 07:16:53 437.375
Cosmos 2504 31 May 07:10:08 07:15:30 19° 283° (WNW) 07:20:58 435.465 / 435.565
NOAA 18 31 May 07:11:06 07:16:27 50° 101° (E) 07:21:46 137.9125
SO-50 31 May 07:11:42 07:15:02 18° 36° (NE) 07:18:16 436.795
BRITE-PL 31 May 07:24:06 07:29:08 69° 101° (E) 07:33:44 437.365/2234.400
CUTE-I 31 May 07:25:31 07:30:49 58° 101° (E) 07:36:05 437.470
GOMX 1 31 May 07:28:39 07:32:50 34° 95° (E) 07:36:45 467.674
AO-85 31 May 07:29:04 07:33:33 26° 319° (NW) 07:37:55 145.980
AIST 1 31 May 07:41:09 07:44:52 27° 73° (ENE) 07:48:33
Cosmos 2499 31 May 07:45:51 07:51:02 17° 57° (ENE) 07:56:17 435.465 / 435.565
LilacSat-2 31 May 07:47:24 07:51:11 74° 284° (WNW) 07:54:58 437.200
STRAND 1 31 May 07:52:32 07:57:35 65° 258° (WSW) 08:02:42 437.568
DOVE 4 31 May 07:57:25 08:01:15 30° 95° (E) 08:04:55 437.250
NOAA 15 31 May 08:01:20 08:06:27 50° 291° (WNW) 08:11:32 137.62
PRISM 31 May 08:03:45 08:07:24 30° 68° (ENE) 08:11:05 437.425
AO-7 31 May 08:11:01 08:14:41 14° 320° (NW) 08:18:21 29.400- 29.500
Cubesat XI-IV 31 May 08:20:37 08:25:47 49° 290° (WNW) 08:30:56 437.490
SEEDS 31 May 08:21:12 08:22:36 11° 89° (E) 08:23:59 437.485
CANX-2 31 May 08:25:10 08:28:23 20° 93° (E) 08:31:35 2200.000
PCSat 31 May 08:29:49 08:33:45 21° 106° (ESE) 08:37:39 145.827
GONETS M04 31 May 08:39:33 08:48:00 52° 74° (ENE) 08:56:24
CUTE 1.7 + AOD 2 31 May 08:51:07 08:55:01 33° 96° (E) 08:58:54 437.475
SO-50 31 May 08:51:26 08:56:10 85° 236° (SW) 09:00:43 436.795
NOAA 18 31 May 08:52:23 08:56:48 26° 298° (WNW) 09:01:13 137.9125
AAUSAT CUBESAT 2 31 May 08:57:06 08:59:47 16° 91° (E) 09:02:26 437.432
COMPASS 1 31 May 08:58:13 09:01:26 21° 93° (E) 09:04:38 437.405
O/OREOS (USA 219) 31 May 08:59:29 09:03:42 39° 106° (ESE) 09:07:56 437.305
BRITE-PL 31 May 09:04:00 09:06:55 16° 301° (WNW) 09:09:44 437.365/2234.400
CUTE-I 31 May 09:06:28 09:10:26 22° 299° (WNW) 09:14:25 437.470
GOMX 1 31 May 09:07:03 09:10:46 25° 295° (WNW) 09:14:18 467.674
HO-68 31 May 09:08:22 09:15:24 54° 101° (E) 09:22:23 435.675
AIST 1 31 May 09:18:45 09:22:25 27° 271° (W) 09:26:01
ANTELSAT 31 May 09:23:51 09:25:51 13° 61° (ENE) 09:27:50 437.575/2403.000
AUBIESAT-1 31 May 09:34:19 09:37:36 62° 107° (ESE) 09:40:55 437.475
ZACube-1 31 May 09:34:37 09:37:08 15° 91° (E) 09:39:40 437.345
CINEMA 3 31 May 09:35:12 09:39:23 77° 283° (WNW) 09:43:31 145.822/145.860
DOVE 4 31 May 09:35:19 09:38:51 24° 294° (WNW) 09:42:15 437.250
Cosmos 2499 31 May 09:37:07 09:45:48 72° 79° (E) 09:54:40 435.465 / 435.565
PRISM 31 May 09:39:18 09:42:43 24° 265° (W) 09:46:10 437.425
M-CUBED/EXP-1 PRIME 31 May 09:44:44 09:48:00 73° 290° (WNW) 09:51:17 437.505
SEEDS 31 May 09:54:30 09:58:46 68° 284° (WNW) 10:02:59 437.485
CUBEBUG 2 31 May 09:56:57 10:01:04 56° 100° (E) 10:05:15 437.445
CUSAT 1 31 May 09:57:26 09:58:35 10° 72° (ENE) 09:59:46 437.405
CANX-2 31 May 10:00:23 10:04:23 38° 289° (WNW) 10:08:22 2200.000
BEESAT 3 31 May 10:06:20 10:08:23 14° 110° (ESE) 10:10:28 437.485
FUNcube-1 31 May 10:09:22 10:13:12 33° 97° (E) 10:17:06 145.935
PCSat 31 May 10:11:16 10:16:38 62° 304° (NW) 10:22:03 145.827
UWE-3 31 May 10:16:44 10:20:56 65° 102° (ESE) 10:25:10 435.000/436.395/437.385
UNISAT 6 31 May 10:16:52 10:20:59 44° 71° (ENE) 10:25:03 437.425
TIGRISAT 31 May 10:22:55 10:27:04 48° 72° (ENE) 10:31:12 435.000
CUTE 1.7 + AOD 2 31 May 10:27:15 10:30:42 24° 293° (WNW) 10:34:09 437.475
DELFI C3 31 May 10:27:23 10:30:57 29° 96° (E) 10:34:29 145.870
AAUSAT CUBESAT 2 31 May 10:31:28 10:35:31 46° 288° (WNW) 10:39:31 437.432
COMPASS 1 31 May 10:33:13 10:37:06 36° 290° (WNW) 10:40:58 437.405
SO-50 31 May 10:35:32 10:35:48 10° 254° (WSW) 10:36:03 436.795
GONETS M04 31 May 10:36:50 10:44:32 37° 275° (W) 10:52:12
O/OREOS (USA 219) 31 May 10:39:31 10:43:14 24° 305° (NW) 10:46:57 437.305
HUMSAT D 31 May 10:42:10 10:45:18 20° 93° (E) 10:48:27 437.325/437.525
Oscar 11 31 May 10:47:04 10:51:25 80° 286° (WNW) 10:55:47 145.826/435.025
QB50P1 31 May 10:47:45 10:50:43 19° 65° (ENE) 10:53:41 145.935-145.965
POPSAT HIP 1 31 May 10:47:48 10:50:44 19° 64° (ENE) 10:53:40 437.405
QB50P2 31 May 10:51:16 10:54:29 21° 66° (ENE) 10:57:42 145.880/145.840
POLYITAN 1 31 May 10:53:44 10:56:58 22° 66° (ENE) 11:00:12 437.675
HO-68 31 May 10:56:35 11:02:49 34° 300° (WNW) 11:09:03 435.675
ANTELSAT 31 May 10:57:45 11:02:03 67° 258° (WSW) 11:06:19 437.575/2403.000
NANOSAT C BR1 31 May 11:03:08 11:06:37 25° 67° (ENE) 11:10:05 145.865
ZACube-1 31 May 11:09:37 11:13:42 50° 287° (WNW) 11:17:50 437.345
BEESAT 2 31 May 11:15:23 11:19:08 42° 118° (ESE) 11:22:56 435.950
ESTCUBE 1 31 May 11:30:16 11:32:32 13° 89° (E) 11:34:47 437.505/2401.250
JAS-2 31 May 11:30:19 11:35:52 22° 55° (NE) 11:41:30 435.910
Cosmos 2499 31 May 11:31:17 11:38:10 27° 279° (W) 11:45:12 435.465 / 435.565
CUSAT 1 31 May 11:32:08 11:38:46 57° 93° (E) 11:46:31 437.405
CUBEBUG 2 31 May 11:35:00 11:37:17 14° 297° (WNW) 11:39:35 437.445
DUCHIFAT 1 31 May 11:38:53 11:43:01 57° 73° (ENE) 11:47:09 145.980
BUGSAT 1 31 May 11:40:02 11:43:37 28° 68° (ENE) 11:47:11 437.445
BEESAT 3 31 May 11:41:44 11:45:37 58° 307° (NW) 11:49:32 437.485
FUNcube-1 31 May 11:45:58 11:49:18 23° 293° (WNW) 11:52:40 145.935
UWE-3 31 May 11:54:58 11:56:54 13° 298° (WNW) 11:58:52 435.000/436.395/437.385
UNISAT 6 31 May 11:55:01 11:57:55 17° 268° (W) 12:00:49 437.425
UKube-1 31 May 11:57:23 11:58:03 10° 89° (E) 11:58:43 .
PCSat 31 May 11:58:16 12:01:11 14° 326° (NW) 12:04:06 145.827
TIGRISAT 31 May 12:01:22 12:04:02 16° 268° (W) 12:06:42 435.000
DELFI C3 31 May 12:02:25 12:05:41 24° 293° (WNW) 12:08:56 145.870
DANDE 31 May 12:05:03 12:10:50 49° 90° (E) 12:18:06 436.750
AISAT 31 May 12:10:08 12:13:42 24° 94° (E) 12:17:14 437.250
HUMSAT D 31 May 12:17:12 12:21:03 37° 290° (WNW) 12:24:55 437.325/437.525
QB50P1 31 May 12:22:10 12:26:12 42° 261° (W) 12:30:14 145.935-145.965
POPSAT HIP 1 31 May 12:22:11 12:26:13 43° 261° (W) 12:30:16 437.405
AIST 2 31 May 12:23:44 12:26:07 15° 110° (ESE) 12:28:30 435.215
QB50P2 31 May 12:26:09 12:30:04 37° 262° (W) 12:34:01 145.880/145.840
POLYITAN 1 31 May 12:28:41 12:32:34 36° 262° (W) 12:36:29 437.675
Oscar 19 31 May 12:33:38 12:37:27 21° 62° (ENE) 12:41:15 437.125/150
NANOSAT C BR1 31 May 12:38:31 12:42:14 30° 264° (W) 12:45:59 145.865
AO-85 31 May 12:38:47 12:41:47 16° 32° (NNE) 12:44:39 145.980
DX 1 31 May 12:49:10 12:53:23 47° 100° (E) 12:57:34 434.975-435.025
CUBEBUG 1 31 May 12:50:53 12:55:15 64° 101° (ESE) 12:59:33 437.445
BEESAT 2 31 May 12:53:58 12:57:09 22° 317° (NW) 13:00:22 435.950
SPROUT 31 May 12:58:36 13:02:22 30° 96° (E) 13:06:06 437.525
ESTCUBE 1 31 May 13:05:15 13:09:47 65° 287° (WNW) 13:14:16 437.505/2401.250
VELOX 1 31 May 13:09:12 13:13:39 87° 284° (WNW) 13:18:04 145.980
TISAT 1 31 May 13:09:34 13:10:10 10° 89° (E) 13:10:46 437.305
50 SAT 31 May 13:10:00 13:13:42 63° 286° (WNW) 13:17:24 437.505
JAS-2 31 May 13:12:14 13:19:48 88° 73° (ENE) 13:27:45 435.910
CUSAT 1 31 May 13:15:04 13:21:21 33° 295° (WNW) 13:28:25 437.405
BUGSAT 1 31 May 13:15:26 13:18:57 26° 264° (W) 13:22:29 437.445
DUCHIFAT 1 31 May 13:17:02 13:19:04 13° 270° (W) 13:21:07 145.980
BEESAT 3 31 May 13:23:31 13:24:10 10° 328° (NNW) 13:24:49 437.485
ITAMSAT 1 31 May 13:27:09 13:28:45 11° 55° (NE) 13:30:22 435.822/435.867
Gurwin Techsat 1B 31 May 13:29:45 13:34:15 29° 65° (ENE) 13:38:46 435.225
UKube-1 31 May 13:30:17 13:34:38 77° 285° (WNW) 13:38:55 .
AO-7 31 May 13:35:53 13:40:27 16° 43° (NE) 13:45:02 29.400- 29.500
AISAT 31 May 13:46:15 13:50:15 34° 291° (WNW) 13:54:13 437.250
DANDE 31 May 13:48:19 13:54:00 34° 295° (WNW) 14:00:55 436.750
Cosmos 2491 31 May 13:55:21 14:02:19 25° 63° (ENE) 14:09:13 435.465 / 435.565
AIST 2 31 May 14:00:04 14:04:08 58° 308° (NW) 14:08:14 435.215
Oscar 19 31 May 14:11:14 14:16:21 57° 260° (W) 14:21:29 437.125/150
SWISSCUBE 31 May 14:16:37 14:18:56 13° 89° (E) 14:21:15 437.505
AO-85 31 May 14:18:23 14:23:08 81° 54° (NE) 14:27:25 145.980
ITUPSAT 1 31 May 14:24:54 14:27:31 14° 90° (E) 14:30:08 437.325
DX 1 31 May 14:26:15 14:29:14 18° 297° (WNW) 14:32:12 434.975-435.025
CUBEBUG 1 31 May 14:28:42 14:31:01 14° 299° (WNW) 14:33:20 437.445
SPROUT 31 May 14:34:42 14:38:13 26° 293° (WNW) 14:41:44 437.525
TISAT 1 31 May 14:42:09 14:46:18 72° 286° (WNW) 14:50:27 437.305
BEESAT 31 May 14:44:37 14:48:26 23° 94° (E) 14:52:13 436.000
VELOX 1 31 May 14:48:44 14:49:23 10° 302° (WNW) 14:50:02 145.980
JAS-2 31 May 15:00:24 15:05:43 20° 274° (W) 15:11:14 435.910
ITAMSAT 1 31 May 15:02:10 15:07:19 75° 73° (ENE) 15:12:31 435.822/435.867
Gurwin Techsat 1B 31 May 15:09:03 15:14:01 41° 262° (W) 15:19:02 435.225
AO-7 31 May 15:23:29 15:31:35 61° 65° (ENE) 15:39:45 29.400- 29.500
AIST 2 31 May 15:42:19 15:43:31 11° 328° (NNW) 15:44:43 435.215
YUBILEINY 31 May 15:51:20 15:59:29 48° 88° (E) 16:07:40 435.215
Cosmos 2491 31 May 15:51:23 16:00:08 77° 265° (W) 16:08:47 435.465 / 435.565
SWISSCUBE 31 May 15:52:26 15:57:15 72° 286° (WNW) 16:02:01 437.505
ITUPSAT 1 31 May 16:01:02 16:05:50 67° 287° (WNW) 16:10:35 437.325
AO-85 31 May 16:01:17 16:02:45 11° 255° (WSW) 16:04:10 145.980
KKS-1 31 May 16:06:46 16:09:58 19° 93° (E) 16:13:10 437.445
Cosmos 2504 31 May 16:07:03 16:10:20 14° 74° (ENE) 16:13:44 435.465 / 435.565
BEESAT 31 May 16:21:52 16:26:21 41° 291° (WNW) 16:30:51 436.000
RS-15 31 May 16:30:29 16:40:47 43° 108° (ESE) 16:51:35 29.354- 29.394
STARS 31 May 16:30:35 16:33:33 18° 92° (E) 16:36:29 437.465
HORYU 2 31 May 16:32:06 16:36:09 37° 69° (ENE) 16:40:14 437.375
ITAMSAT 1 31 May 16:44:39 16:47:22 14° 271° (W) 16:50:07 435.822/435.867
MOZHAYETS 4 31 May 16:53:18 16:57:48 47° 99° (E) 17:02:16
BRITE-PL 31 May 16:59:37 17:02:47 15° 59° (ENE) 17:05:56 437.365/2234.400
NOAA 18 31 May 17:01:03 17:04:29 17° 58° (ENE) 17:07:54 137.9125
CUTE-I 31 May 17:11:36 17:14:49 16° 58° (ENE) 17:18:02 437.470
PCSat 31 May 17:14:46 17:19:22 27° 45° (NE) 17:23:55 145.827
AO-7 31 May 17:17:34 17:24:47 32° 264° (W) 17:32:04 29.400- 29.500
O/OREOS (USA 219) 31 May 17:30:00 17:32:09 13° 48° (NE) 17:34:19 437.305
KKS-1 31 May 17:42:33 17:46:45 42° 290° (WNW) 17:50:54 437.445
NOAA 15 31 May 17:43:27 17:48:24 42° 68° (ENE) 17:53:24 137.62
YUBILEINY 31 May 17:48:22 17:56:24 40° 289° (WNW) 18:04:31 435.215
Cosmos 2491 31 May 17:50:53 17:55:22 15° 286° (WNW) 17:59:51 435.465 / 435.565
Cosmos 2504 31 May 17:54:55 18:02:11 79° 95° (E) 18:09:59 435.465 / 435.565
HO-68 31 May 17:58:30 17:59:08 10° 43° (NE) 17:59:46 435.675
Cubesat XI-IV 31 May 18:04:27 18:09:27 44° 69° (ENE) 18:14:29 437.490
STARS 31 May 18:05:58 18:10:09 46° 289° (WNW) 18:14:18 437.465
HORYU 2 31 May 18:09:23 18:12:50 22° 266° (W) 18:16:18 437.375
BEESAT 3 31 May 18:20:48 18:23:32 17° 40° (NE) 18:26:14 437.485
LilacSat-2 31 May 18:30:30 18:34:14 64° 76° (ENE) 18:38:00 437.200
CUBESAT XI-V 31 May 18:30:46 18:35:27 57° 100° (E) 18:40:03 437.345
MOZHAYETS 4 31 May 18:31:15 18:34:38 20° 296° (WNW) 18:38:01
BRITE-PL 31 May 18:34:45 18:40:28 88° 75° (ENE) 18:46:09 437.365/2234.400
GOMX 1 31 May 18:36:49 18:42:03 49° 71° (ENE) 18:47:06 467.674
NOAA 18 31 May 18:39:02 18:44:30 78° 257° (WSW) 18:49:59 137.9125
RS-15 31 May 18:41:22 18:52:43 64° 313° (NW) 19:04:46 29.354- 29.394
CUTE-I 31 May 18:48:54 18:54:13 78° 256° (WSW) 18:59:34 437.470
AUBIESAT-1 31 May 18:50:30 18:51:24 11° 57° (ENE) 18:52:17 437.475
PCSat 31 May 18:57:46 19:03:05 56° 245° (WSW) 19:08:22 145.827
M-CUBED/EXP-1 PRIME 31 May 18:59:31 19:02:02 17° 61° (ENE) 19:04:27 437.505
DOVE 4 31 May 19:03:17 19:08:06 42° 71° (ENE) 19:12:42 437.250
CINEMA 3 31 May 19:03:37 19:05:43 13° 62° (ENE) 19:07:49 145.822/145.860
O/OREOS (USA 219) 31 May 19:07:43 19:12:13 84° 246° (WSW) 19:16:40 437.305
SEEDS 31 May 19:15:38 19:16:23 10° 60° (ENE) 19:17:09 437.485
CANX-2 31 May 19:19:50 19:22:43 18° 64° (ENE) 19:25:36 2200.000
ISS 31 May 19:20:00 19:20:14 10° 130° (SE) 19:20:28 145.825
NOAA 15 31 May 19:23:49 19:28:18 27° 265° (W) 19:32:49 137.62
BEESAT 2 31 May 19:31:58 19:35:48 42° 50° (NE) 19:39:35 435.950
HO-68 31 May 19:38:24 19:45:07 47° 64° (ENE) 19:51:52 435.675
CUTE 1.7 + AOD 2 31 May 19:45:18 19:48:55 28° 68° (ENE) 19:52:33 437.475
Cubesat XI-IV 31 May 19:45:19 19:49:41 26° 266° (W) 19:54:06 437.490
AAUSAT CUBESAT 2 31 May 19:49:33 19:51:44 14° 62° (ENE) 19:53:55 437.432
COMPASS 1 31 May 19:50:54 19:53:42 18° 64° (ENE) 19:56:31 437.405
Cosmos 2504 31 May 19:51:10 19:56:36 21° 298° (WNW) 20:02:19 435.465 / 435.565
BEESAT 3 31 May 19:57:41 20:01:36 62° 240° (WSW) 20:05:29 437.485
STRAND 1 31 May 20:01:36 20:06:24 38° 98° (E) 20:11:10 437.568
CUBESAT XI-V 31 May 20:09:16 20:12:22 18° 298° (WNW) 20:15:27 437.345
Oscar 11 31 May 20:10:54 20:11:43 10° 59° (ENE) 20:12:32 145.826/435.025
AIST 1 31 May 20:13:11 20:15:46 15° 85° (E) 20:18:21
GOMX 1 31 May 20:15:56 20:20:17 24° 267° (W) 20:24:34 467.674
BRITE-PL 31 May 20:16:42 20:19:35 14° 273° (W) 20:22:27 437.365/2234.400
AUBIESAT-1 31 May 20:21:31 20:25:29 73° 252° (WSW) 20:29:11 437.475
ZACube-1 31 May 20:32:28 20:34:53 15° 63° (ENE) 20:37:16 437.345
M-CUBED/EXP-1 PRIME 31 May 20:32:30 20:36:22 43° 255° (WSW) 20:39:59 437.505
CINEMA 3 31 May 20:37:43 20:42:21 74° 258° (WSW) 20:46:48 145.822/145.860
DOVE 4 31 May 20:41:41 20:45:53 25° 266° (W) 20:49:56 437.250
AIST 2 31 May 20:42:14 20:45:20 20° 41° (NE) 20:48:26 435.215
SEEDS 31 May 20:47:15 20:51:26 84° 259° (W) 20:55:39 437.485
ISS 31 May 20:52:53 20:56:08 75° 147° (SSE) 20:59:24 145.825
CANX-2 31 May 20:54:13 20:58:14 44° 262° (W) 21:02:19 2200.000
CUBEBUG 2 31 May 20:56:18 21:00:31 56° 74° (ENE) 21:04:39 437.445
RS-15 31 May 20:58:09 21:08:12 31° 343° (NNW) 21:18:38 29.354- 29.394
DANDE 31 May 21:02:23 21:05:21 12° 48° (NE) 21:08:15 436.750
FUNcube-1 31 May 21:06:27 21:10:08 31° 69° (ENE) 21:13:48 145.935
BEESAT 2 31 May 21:10:27 21:13:22 20° 247° (WSW) 21:16:15 435.950
UWE-3 31 May 21:15:01 21:19:12 62° 74° (ENE) 21:23:19 435.000/436.395/437.385
DELFI C3 31 May 21:15:07 21:18:11 22° 67° (ENE) 21:21:16 145.870
PRISM 31 May 21:18:37 21:22:32 38° 98° (E) 21:26:25 437.425
CUTE 1.7 + AOD 2 31 May 21:21:10 21:24:43 26° 265° (W) 21:28:19 437.475
AAUSAT CUBESAT 2 31 May 21:22:40 21:26:44 58° 260° (W) 21:30:52 437.432
COMPASS 1 31 May 21:24:58 21:28:56 44° 262° (W) 21:32:57 437.405
HO-68 31 May 21:26:27 21:32:57 37° 263° (W) 21:39:29 435.675
HUMSAT D 31 May 21:35:29 21:38:11 17° 65° (ENE) 21:40:54 437.325/437.525
PHONESAT 2.4 31 May 21:36:03 21:38:50 29° 165° (SSE) 21:41:38 2401.200-2431.200
STRAND 1 31 May 21:41:01 21:45:26 29° 295° (WNW) 21:49:50 437.568
GONETS M04 31 May 21:42:06 21:50:35 56° 91° (E) 21:59:03
Oscar 11 31 May 21:42:51 21:47:09 87° 253° (WSW) 21:51:30 145.826/435.025
AIST 1 31 May 21:48:38 21:52:55 50° 282° (WNW) 21:57:13
CUSAT 1 31 May 22:06:31 22:13:48 47° 70° (ENE) 22:19:43 437.405
ZACube-1 31 May 22:06:40 22:10:46 53° 260° (W) 22:14:51 437.345
Cosmos 2499 31 May 22:15:40 22:22:44 53° 90° (E) 22:30:23 435.465 / 435.565
AIST 2 31 May 22:20:05 22:24:09 56° 240° (WSW) 22:28:12 435.215
ISS 31 May 22:29:58 22:32:50 27° 345° (NNW) 22:35:42 145.825
ESTCUBE 1 31 May 22:31:16 22:34:02 16° 62° (ENE) 22:36:49 437.505/2401.250
VELOX 1 31 May 22:34:33 22:36:12 12° 59° (ENE) 22:37:50 145.980
CUBEBUG 2 31 May 22:35:18 22:37:29 14° 270° (W) 22:39:39 437.445
DANDE 31 May 22:42:24 22:50:32 50° 71° (ENE) 22:57:38 436.750
FUNcube-1 31 May 22:43:04 22:46:25 23° 266° (W) 22:49:46 145.935
ANTELSAT 31 May 22:48:16 22:51:38 21° 94° (E) 22:55:01 437.575/2403.000
DELFI C3 31 May 22:49:18 22:52:52 32° 264° (W) 22:56:29 145.870
UKube-1 31 May 22:52:58 22:54:45 12° 60° (ENE) 22:56:32 .
UWE-3 31 May 22:54:22 22:56:03 12° 270° (W) 22:57:44 435.000/436.395/437.385
PRISM 31 May 22:54:32 22:57:36 20° 295° (WNW) 23:00:39 437.425
SO-50 31 May 23:07:27 23:11:18 23° 112° (ESE) 23:15:09 436.795
AISAT 31 May 23:08:50 23:12:34 26° 66° (ENE) 23:16:17 437.250
HUMSAT D 31 May 23:09:38 23:13:30 42° 262° (W) 23:17:25 437.325/437.525
PHONESAT 2.4 31 May 23:12:16 23:15:16 42° 182° (S) 23:18:16 2401.200-2431.200
RS-15 31 May 23:15:14 23:25:40 31° 19° (NNE) 23:36:16 29.354- 29.394
GONETS M04 31 May 23:39:58 23:47:48 35° 292° (WNW) 23:55:38
UNISAT 6 31 May 23:43:06 23:47:27 83° 103° (ESE) 23:51:52 437.425
DX 1 31 May 23:45:47 23:50:01 50° 71° (ENE) 23:54:16 434.975-435.025
CUBEBUG 1 31 May 23:47:50 23:52:14 63° 73° (ENE) 23:56:37 437.445
TIGRISAT 31 May 23:49:00 23:53:21 89° 130° (SE) 23:57:44 435.000
CUSAT 1 31 May 23:49:06 23:55:37 34° 275° (W) 00:01:02 437.405
50 SAT 31 May 23:49:15 23:52:51 70° 75° (ENE) 23:56:31 437.505
SPROUT 31 May 23:53:35 23:57:16 28° 68° (ENE) 00:00:58 437.525
TISAT 1 01 Jun 00:02:54 00:03:59 11° 60° (ENE) 00:05:05 437.305
QB50P1 01 Jun 00:05:34 00:09:07 26° 95° (E) 00:12:38 145.935-145.965
POPSAT HIP 1 01 Jun 00:05:39 00:09:11 25° 95° (E) 00:12:41 437.405
ESTCUBE 1 01 Jun 00:05:55 00:10:22 60° 259° (W) 00:14:53 437.505/2401.250
ISS 01 Jun 00:07:23 00:09:59 22° 5° (N) 00:12:36 145.825
VELOX 1 01 Jun 00:07:32 00:12:00 83° 255° (WSW) 00:16:30 145.980
QB50P2 01 Jun 00:09:28 00:13:12 30° 96° (E) 00:16:55 145.880/145.840
Cosmos 2499 01 Jun 00:09:42 00:16:14 32° 293° (WNW) 00:23:14 435.465 / 435.565
POLYITAN 1 01 Jun 00:11:57 00:15:41 30° 96° (E) 00:19:26 437.675
NANOSAT C BR1 01 Jun 00:20:57 00:24:50 36° 98° (E) 00:28:42 145.865
ANTELSAT 01 Jun 00:24:28 00:28:27 37° 290° (WNW) 00:32:30 437.575/2403.000
JAS-2 01 Jun 00:24:30 00:27:13 12° 81° (E) 00:29:51 435.910
DANDE 01 Jun 00:25:37 00:33:11 40° 273° (W) 00:39:52 436.750
UKube-1 01 Jun 00:25:52 00:30:12 76° 258° (WSW) 00:34:33 .
AISAT 01 Jun 00:44:54 00:48:55 32° 263° (W) 00:52:58 437.250
SO-50 01 Jun 00:46:41 00:51:29 52° 310° (NW) 00:56:17 436.795
PHONESAT 2.4 01 Jun 00:49:02 00:51:40 24° 198° (SSW) 00:54:16 2401.200-2431.200
BUGSAT 1 01 Jun 00:55:09 00:58:55 37° 98° (E) 01:02:38 437.445
DUCHIFAT 1 01 Jun 00:56:59 01:01:11 87° 104° (ESE) 01:05:22 145.980
UNISAT 6 01 Jun 01:22:16 01:23:33 11° 300° (WNW) 01:24:51 437.425
DX 1 01 Jun 01:23:41 01:26:29 16° 268° (W) 01:29:18 434.975-435.025
SWISSCUBE 01 Jun 01:24:10 01:27:33 20° 62° (ENE) 01:30:56 437.505
CUBEBUG 1 01 Jun 01:26:46 01:28:55 13° 270° (W) 01:31:05 437.445
TIGRISAT 01 Jun 01:28:47 01:29:22 10° 301° (WNW) 01:29:57 435.000
RS-15 01 Jun 01:28:49 01:41:06 67° 49° (NE) 01:53:20 29.354- 29.394
SPROUT 01 Jun 01:29:31 01:33:11 27° 265° (W) 01:36:52 437.525
ITUPSAT 1 01 Jun 01:32:49 01:36:21 21° 63° (ENE) 01:39:54 437.325
TISAT 1 01 Jun 01:34:47 01:39:00 82° 255° (WSW) 01:43:14 437.305
QB50P1 01 Jun 01:41:14 01:44:52 29° 292° (WNW) 01:48:29 145.935-145.965
POPSAT HIP 1 01 Jun 01:41:19 01:44:57 29° 292° (WNW) 01:48:35 437.405
ISS 01 Jun 01:43:47 01:46:58 48° 25° (NNE) 01:50:09 145.825
QB50P2 01 Jun 01:45:27 01:48:54 25° 293° (WNW) 01:52:21 145.880/145.840
POLYITAN 1 01 Jun 01:47:57 01:51:23 25° 293° (WNW) 01:54:48 437.675
BEESAT 01 Jun 01:52:18 01:56:29 32° 67° (ENE) 02:00:42 436.000
NANOSAT C BR1 01 Jun 01:57:11 02:00:22 21° 294° (WNW) 02:03:32 145.865
YUBILEINY 01 Jun 01:59:35 02:06:37 26° 64° (ENE) 02:13:38 435.215
JAS-2 01 Jun 02:06:22 02:13:43 73° 102° (ESE) 02:20:11 435.910
Oscar 19 01 Jun 02:21:16 02:26:13 45° 99° (E) 02:31:07 437.125/150
SO-50 01 Jun 02:30:51 02:33:06 13° 331° (NNW) 02:35:19 436.795
BUGSAT 1 01 Jun 02:31:09 02:34:03 19° 295° (WNW) 02:36:56 437.445
Cosmos 2491 01 Jun 02:59:32 03:06:27 27° 80° (E) 03:13:21 435.465 / 435.565
SWISSCUBE 01 Jun 03:00:19 03:04:57 52° 260° (W) 03:09:38 437.505
KKS-1 01 Jun 03:06:13 03:09:41 23° 65° (ENE) 03:13:09 437.445
ITUPSAT 1 01 Jun 03:09:16 03:13:51 48° 260° (W) 03:18:30 437.325
ITAMSAT 1 01 Jun 03:14:07 03:18:16 24° 93° (E) 03:22:25 435.822/435.867
ISS 01 Jun 03:20:30 03:23:16 26° 223° (SW) 03:26:01 145.825
Gurwin Techsat 1B 01 Jun 03:23:13 03:28:32 72° 102° (ESE) 03:33:51 435.225
AO-7 01 Jun 03:25:16 03:30:06 16° 88° (E) 03:34:54 29.400- 29.500
STARS 01 Jun 03:28:42 03:31:55 20° 64° (ENE) 03:35:08 437.465
BEESAT 01 Jun 03:30:05 03:34:14 30° 264° (W) 03:38:26 436.000
RS-15 01 Jun 03:41:56 03:53:06 43° 252° (WSW) 04:04:12 29.354- 29.394
Cosmos 2504 01 Jun 03:44:45 03:52:20 34° 69° (ENE) 04:00:10 435.465 / 435.565
JAS-2 01 Jun 03:52:16 03:57:56 25° 304° (WNW) 04:03:10 435.910
YUBILEINY 01 Jun 03:55:36 04:04:21 76° 266° (W) 04:13:07 435.215
MOZHAYETS 4 01 Jun 03:56:24 04:00:50 52° 72° (ENE) 04:05:17
Oscar 19 01 Jun 04:01:08 04:05:17 25° 297° (WNW) 04:09:24 437.125/150
